Location: Melita
(38.4566°N, 122.6369°W)
Time: 11:02:23
(UTC+00:00)

Cosmos 1953 Rocket - Pass Details

Date: 24 January 2020
Orbit: 603 x 636 km, 82.5° (Epoch: 18 February)

Event Time Altitude Azimuth Distance (km) Brightness Sun altitude
Exits shadow 13:43:19 - 351° (N) 2,190 6.2 -19.3°
Reaches altitude 10° 13:43:48 10° 350° (N) 1,996 6.0 -19.2°
Maximum altitude 13:48:13 80° 265° (W) 631 3.4 -18.4°
Drops below altitude 10° 13:52:33 10° 178° (S) 1,961 6.3 -17.5°
Sets 13:54:45 0° 177° (S) 2,856 7.2 -17.1°
